Flag for India Weather past 2 weeks in Dindigul, Tamil Nadu, India

Now
73 °F

Drizzle. Mostly cloudy.


Feels Like: 68 °F
Forecast: 70 / 79 °F
Wind: 6 mph from Northwest

Location: Tiruchchirapalli

Current Time: Dec 29, 2014 at 3:02:58 AM

Latest Report: Dec 29, 2014 at 1:40 AM


Visibility: 1 mi

Pressure: 29.86 "Hg

Humidity: 100%

Dew point: 73 °F

Location of DindigulLocation

Historic Weather in Dindigul — Graph

°F

Dindigul temperature yesterday

Maximum temperature yesterday: 77 °F (at 12:40 PM)
Minimum temperature yesterday: 73 °F (at 1:40 AM)
Average temperature yesterday: 75 °F

Past Weeks' High & Low Weather Summary

 TemperatureHumidityPressure
High88 °F (Dec 15, 1:40 PM)100% (Dec 14, 8:40 AM)30.01 "Hg (Dec 14, 8:40 AM)
Low70 °F (Dec 23, 5:40 AM)55% (Dec 21, 12:40 PM)29.77 "Hg (Dec 21, 4:40 PM)
Average77 °F81%29.90 "Hg
* Reported Dec 14 12:40 AM — Dec 29 12:40 AM, Dindigul, Weather by CustomWeather, © 2014

Note: Actual official high and low records may vary slightly from our data, if they occured in-between our weather recording intervals... More about our weather records

Advertising

Dindigul weather history for previous 24 hours

 ConditionsComfort  
Time TempWeatherWind HumidityBarometerVisibility
12:40 AM
Dec 29
73 °FDrizzle. Mostly cloudy.6 mph100%29.86 "Hg1 mi
11:40 PM
Dec 28
73 °FLight rain. Mostly cloudy.2 mph100%29.89 "Hg1 mi
10:40 PM75 °FDrizzle. Mostly cloudy.3 mph83%29.92 "Hg1 mi
9:40 PM75 °FDrizzle. Mostly cloudy.3 mph83%29.92 "Hg1 mi
8:40 PM75 °FDrizzle. Mostly cloudy.6 mph83%29.89 "Hg1 mi
7:40 PM75 °FDrizzle. Mostly cloudy.5 mph89%29.86 "Hg1 mi
6:40 PM75 °FDrizzle. Mostly cloudy.7 mph89%29.86 "Hg1 mi
5:40 PM75 °FDrizzle. More clouds than sun.3 mph89%29.83 "Hg1 mi
4:40 PM77 °FDrizzle. More clouds than sun.3 mph83%29.80 "Hg1 mi
3:40 PM77 °FDrizzle. More clouds than sun.5 mph83%29.80 "Hg1 mi
2:40 PM77 °FFog.12 mph79%29.83 "Hg1 mi
1:40 PM77 °FDrizzle. More clouds than sun.9 mph79%29.86 "Hg1 mi
12:40 PM77 °FFog.12 mph79%29.89 "Hg1 mi
11:40 AM75 °FFog.12 mph89%29.92 "Hg1 mi
10:40 AM75 °FDrizzle. More clouds than sun.12 mph83%29.95 "Hg1 mi
9:40 AM75 °FDrizzle. More clouds than sun.9 mph83%29.92 "Hg1 mi
8:40 AM73 °FLight rain. More clouds than sun.9 mph89%29.92 "Hg1 mi
7:40 AM73 °FLight rain. More clouds than sun.9 mph89%29.92 "Hg1 mi
6:40 AM73 °FDrizzle. Mostly cloudy.7 mph89%29.86 "Hg1 mi
5:40 AM73 °FDrizzle. Mostly cloudy.5 mph89%29.86 "Hg1 mi
4:40 AM73 °FDrizzle. Mostly cloudy.8 mph83%29.83 "Hg1 mi
3:40 AM73 °FFog.12 mph83%29.83 "Hg1 mi
Weather by CustomWeather, © 2014

See weather overviewHow to use our weather pages